When you browse on this site, cookies collect data to enhance your experience and personalize the content and advertising you see.
Visit our Privacy Policy to learn more. By continuing to use the site, you agree to this use of cookies and data.
  • In Hungary
  • List of Countries
  • For 7 days
  • Water Temperature
  • Weather Map
  • News
  • Weather Widgets
  • user-avatar
    Login

    Hourly Weather Winsford

    Today, 26 August, Monday

    Time Temperature Precipitation Wind Pressure Humidity
    00:00 +19°C° 0 mm 1 mps 760 mmHg 86%
    01:00 +19°C° 0 mm 1 mps 760 mmHg 88%
    02:00 +18°C° 0 mm 1 mps 760 mmHg 89%
    03:00 +17°C° 0 mm 2 mps 760 mmHg 90%
    04:00 +18°C° 0 mm 1 mps 759 mmHg 91%
    05:00 +18°C° 0 mm 1 mps 759 mmHg 91%
    06:00 +18°C° 0 mm 1 mps 759 mmHg 91%
    07:00 +19°C° 0 mm 1 mps 759 mmHg 86%
    08:00 +21°C° 0 mm 1 mps 759 mmHg 81%
    09:00 +22°C° 0 mm 1 mps 759 mmHg 76%
    10:00 +23°C° 0 mm 1 mps 759 mmHg 72%
    11:00 +25°C° 0 mm 1 mps 759 mmHg 67%
    12:00 +26°C° 0 mm 2 mps 759 mmHg 63%
    13:00 +26°C° 0 mm 2 mps 759 mmHg 62%
    14:00 +26°C° 0 mm 2 mps 758 mmHg 62%
    15:00 +26°C° 0 mm 2 mps 758 mmHg 61%
    16:00 +25°C° 0 mm 2 mps 758 mmHg 66%
    17:00 +24°C° 0 mm 2 mps 758 mmHg 71%
    18:00 +22°C° 0 mm 3 mps 758 mmHg 75%
    19:00 +21°C° 0 mm 2 mps 758 mmHg 78%
    20:00 +19°C° 0 mm 2 mps 758 mmHg 81%
    21:00 +18°C° 0 mm 2 mps 758 mmHg 84%
    22:00 +19°C° 0 mm 1 mps 758 mmHg 85%
    23:00 +18°C° 0 mm 1 mps 758 mmHg 86%

    Tomorrow, 27 August, Tuesday

    Time Temperature Precipitation Wind Pressure Humidity
    00:00 +18°C° 0 mm 1 mps 758 mmHg 87%
    01:00 +18°C° 0 mm 1 mps 757 mmHg 87%
    02:00 +18°C° 0 mm 1 mps 757 mmHg 87%
    03:00 +18°C° 0 mm 1 mps 757 mmHg 87%
    04:00 +18°C° 0 mm 1 mps 757 mmHg 88%
    05:00 +18°C° 0 mm 1 mps 757 mmHg 89%
    06:00 +18°C° 0 mm 1 mps 757 mmHg 90%
    07:00 +18°C° 0.2 mm 1 mps 757 mmHg 88%
    08:00 +19°C° 0.2 mm 1 mps 757 mmHg 86%
    09:00 +19°C° 0.2 mm 1 mps 757 mmHg 84%
    10:00 +20°C° 0.1 mm 1 mps 757 mmHg 82%
    11:00 +21°C° 0.1 mm 1 mps 756 mmHg 79%
    12:00 +22°C° 0.1 mm 1 mps 756 mmHg 77%
    13:00 +21°C° 0 mm 1 mps 756 mmHg 79%
    14:00 +21°C° 0 mm 1 mps 756 mmHg 82%
    15:00 +21°C° 0 mm 1 mps 756 mmHg 84%
    16:00 +21°C° 0 mm 1 mps 756 mmHg 83%
    17:00 +21°C° 0 mm 1 mps 756 mmHg 82%
    18:00 +22°C° 0 mm 1 mps 755 mmHg 82%
    19:00 +20°C° 0 mm 1 mps 756 mmHg 83%
    20:00 +18°C° 0 mm 2 mps 756 mmHg 85%
    21:00 +17°C° 0 mm 2 mps 756 mmHg 87%
    22:00 +16°C° 0 mm 1 mps 756 mmHg 87%
    23:00 +16°C° 0 mm 1 mps 756 mmHg 88%

    Day after tomorrow, 28 August, Wednesday

    Time Temperature Precipitation Wind Pressure Humidity
    00:00 +14°C° 0 mm 0 mps 756 mmHg 88%
    01:00 +15°C° 0 mm 1 mps 756 mmHg 88%
    02:00 +15°C° 0 mm 1 mps 755 mmHg 88%
    03:00 +14°C° 0 mm 1 mps 755 mmHg 88%
    04:00 +15°C° 0 mm 1 mps 755 mmHg 86%
    05:00 +15°C° 0 mm 1 mps 755 mmHg 85%
    06:00 +15°C° 0 mm 2 mps 755 mmHg 83%
    07:00 +15°C° 0.9 mm 1 mps 755 mmHg 86%
    08:00 +15°C° 0.9 mm 1 mps 755 mmHg 90%
    09:00 +15°C° 0.9 mm 1 mps 755 mmHg 93%
    10:00 +15°C° 0.7 mm 2 mps 755 mmHg 93%
    11:00 +14°C° 0.7 mm 3 mps 755 mmHg 93%
    12:00 +14°C° 0.7 mm 3 mps 755 mmHg 93%
    13:00 +16°C° 0.1 mm 3 mps 754 mmHg 91%
    14:00 +16°C° 0.1 mm 3 mps 754 mmHg 89%
    15:00 +17°C° 0.1 mm 3 mps 754 mmHg 88%
    16:00 +16°C° 0.7 mm 3 mps 754 mmHg 89%
    17:00 +16°C° 0.7 mm 3 mps 753 mmHg 90%
    18:00 +16°C° 0.7 mm 3 mps 753 mmHg 91%
    19:00 +16°C° 0.6 mm 3 mps 753 mmHg 92%
    20:00 +14°C° 0.6 mm 3 mps 754 mmHg 93%
    21:00 +14°C° 0.6 mm 3 mps 754 mmHg 94%
    22:00 +14°C° 1 mm 4 mps 754 mmHg 93%
    23:00 +13°C° 1 mm 4 mps 754 mmHg 93%

    29 August, Thursday

    Time Temperature Precipitation Wind Pressure Humidity
    00:00 +13°C° 1 mm 4 mps 754 mmHg 93%
    01:00 +12°C° 0.2 mm 4 mps 755 mmHg 90%
    02:00 +12°C° 0.2 mm 4 mps 755 mmHg 88%
    03:00 +11°C° 0.2 mm 4 mps 756 mmHg 85%
    04:00 +11°C° 0 mm 3 mps 756 mmHg 87%
    05:00 +11°C° 0 mm 3 mps 757 mmHg 88%
    06:00 +10°C° 0 mm 3 mps 757 mmHg 89%
    07:00 +12°C° 0 mm 3 mps 758 mmHg 84%
    08:00 +13°C° 0 mm 3 mps 758 mmHg 79%
    09:00 +16°C° 0 mm 3 mps 759 mmHg 73%
    10:00 +17°C° 0 mm 4 mps 759 mmHg 68%
    11:00 +18°C° 0 mm 4 mps 759 mmHg 62%
    12:00 +19°C° 0 mm 4 mps 759 mmHg 57%
    13:00 +19°C° 0 mm 5 mps 759 mmHg 58%
    14:00 +19°C° 0 mm 5 mps 759 mmHg 59%
    15:00 +19°C° 0 mm 5 mps 759 mmHg 61%
    16:00 +17°C° 0 mm 5 mps 759 mmHg 65%
    17:00 +17°C° 0 mm 4 mps 759 mmHg 68%
    18:00 +15°C° 0 mm 4 mps 760 mmHg 72%
    19:00 +14°C° 0 mm 4 mps 760 mmHg 76%
    20:00 +13°C° 0 mm 3 mps 760 mmHg 80%
    21:00 +12°C° 0 mm 3 mps 760 mmHg 84%
    22:00 +12°C° 0 mm 3 mps 760 mmHg 86%
    23:00 +11°C° 0 mm 3 mps 760 mmHg 88%

    30 August, Friday

    Time Temperature Precipitation Wind Pressure Humidity
    00:00 +11°C° 0 mm 3 mps 760 mmHg 90%
    01:00 +11°C° 0 mm 3 mps 760 mmHg 91%
    02:00 +11°C° 0 mm 3 mps 760 mmHg 91%
    03:00 +11°C° 0 mm 3 mps 760 mmHg 92%
    04:00 +11°C° 0 mm 4 mps 760 mmHg 92%
    05:00 +12°C° 0 mm 4 mps 760 mmHg 91%
    06:00 +12°C° 0 mm 4 mps 759 mmHg 90%
    07:00 +13°C° 0 mm 4 mps 759 mmHg 86%
    08:00 +15°C° 0 mm 5 mps 759 mmHg 82%
    09:00 +16°C° 0 mm 5 mps 759 mmHg 77%
    10:00 +17°C° 0 mm 5 mps 759 mmHg 76%
    11:00 +17°C° 0 mm 5 mps 759 mmHg 74%
    12:00 +19°C° 0 mm 6 mps 759 mmHg 72%
    13:00 +19°C° 0 mm 5 mps 759 mmHg 73%
    14:00 +19°C° 0 mm 5 mps 758 mmHg 74%
    15:00 +19°C° 0 mm 5 mps 758 mmHg 76%
    16:00 +17°C° 0 mm 5 mps 758 mmHg 76%
    17:00 +17°C° 0 mm 5 mps 757 mmHg 77%
    18:00 +17°C° 0 mm 5 mps 757 mmHg 77%
    19:00 +16°C° 0 mm 5 mps 757 mmHg 78%
    20:00 +16°C° 0 mm 5 mps 757 mmHg 79%
    21:00 +15°C° 0 mm 5 mps 757 mmHg 80%
    22:00 +15°C° 0 mm 5 mps 757 mmHg 80%
    23:00 +15°C° 0 mm 5 mps 757 mmHg 80%

    31 August, Saturday

    Time Temperature Precipitation Wind Pressure Humidity
    00:00 +15°C° 0 mm 5 mps 757 mmHg 79%
    01:00 +15°C° 0 mm 5 mps 756 mmHg 79%
    02:00 +15°C° 0 mm 4 mps 756 mmHg 79%
    03:00 +15°C° 0 mm 4 mps 756 mmHg 78%
    04:00 +15°C° 0 mm 4 mps 756 mmHg 80%
    05:00 +15°C° 0 mm 4 mps 756 mmHg 82%
    06:00 +15°C° 0 mm 4 mps 756 mmHg 84%
    07:00 +15°C° 0.2 mm 4 mps 757 mmHg 87%
    08:00 +16°C° 0.2 mm 3 mps 757 mmHg 89%
    09:00 +16°C° 0.2 mm 3 mps 757 mmHg 91%
    10:00 +16°C° 0.2 mm 3 mps 757 mmHg 90%
    11:00 +15°C° 0.2 mm 2 mps 757 mmHg 88%
    12:00 +15°C° 0.2 mm 2 mps 758 mmHg 87%
    13:00 +15°C° 0.1 mm 2 mps 757 mmHg 84%
    14:00 +16°C° 0.1 mm 2 mps 757 mmHg 81%
    15:00 +16°C° 0.1 mm 1 mps 757 mmHg 78%
    16:00 +16°C° 0 mm 2 mps 758 mmHg 78%
    17:00 +16°C° 0 mm 2 mps 758 mmHg 77%
    18:00 +16°C° 0 mm 2 mps 758 mmHg 77%
    19:00 +14°C° 0 mm 2 mps 758 mmHg 79%
    20:00 +13°C° 0 mm 1 mps 759 mmHg 82%
    21:00 +12°C° 0 mm 1 mps 759 mmHg 85%
    22:00 +12°C° 0 mm 1 mps 759 mmHg 86%
    23:00 +12°C° 0 mm 1 mps 759 mmHg 87%
    Show more